Location: East Irvine
(33.6759°N, 117.7598°W)
Time: 01:50:52
(UTC+00:00)

Cosmos 2058 - Pass Details

Date: 15 November 2025
Orbit: 529 x 541 km, 82.5° (Epoch: 07 December)

Event Time Altitude Azimuth Distance (km) Brightness Sun altitude
Rises 02:03:28 0° 2° (N) 2,697 6.2 -15.8°
Reaches altitude 10° 02:05:43 10° 10° (N) 1,803 5.2 -16.2°
Maximum altitude 02:09:28 40° 80° (E) 800 3.1 -17.0°
Drops below altitude 10° 02:13:13 10° 152° (SSE) 1,797 5.3 -17.8°
Sets 02:15:27 0° 159° (SSE) 2,686 6.2 -18.2°
